Location: Mount Cross
(36.6390°N, 79.4878°W)
Time: 09:36:23
(UTC+00:00)

Vanguard 1 Rocket - Pass Details

Date: 02 April 2023
Orbit: 654 x 4221 km, 34.3° (Epoch: 01 June)

Event Time Altitude Azimuth Distance (km) Brightness Sun altitude
Rises 06:23:55 0° 280° (W) 8,191 12.2 -46.0°
Reaches altitude 10° 06:30:08 10° 279° (W) 6,831 11.7 -45.5°
Enters shadow 06:38:04 27° 275° (W) 4,957 10.8 -44.8°
Maximum altitude 06:50:16 69° 202° (SSW) 2,503 - -43.6°
Exits shadow 06:59:43 14° 122° (ESE) 3,527 10.3 -42.6°
Drops below altitude 10° 07:00:25 10° 121° (ESE) 3,714 10.5 -42.5°
Sets 07:02:45 0° 118° (ESE) 4,386 11.0 -42.3°
